Погода в Братске

Погода в Братске : погода сейчас, прогноз погоды и архив. Всё, что Вы хотите узнать о погоде в Братске!

Поиск расширенной информации на нашем сайте:

Другие новости

Новости СМИ2

Главная страница сайта

Новости сайта

02.10.2013

Напоминаем, что на нашем новом сайте вы можете получить высокодетализированные прогнозы погоды по пунктам России, СНГ и мира (включающие важные для авиации метеовеличины, такие как направление и скорость ветра, видимость, явления погоды, количество и форма облачности, нижняя и верхняя граница облачности), а также ознакомиться с разнообразными материалами по авиационной метеорологии и подборкой полезных ссылок на эту тему.

Сайт Метеоцентр.Азия посвящён разработке технологий оптимизации авиаметеорологического обслуживания, включая проектирование и перспективное создание нескольких автоматизированных авиаметеорологических систем:
- система выпуска высокодетальных прогностических карт явлений погоды для нижнего воздушного пространства по России и ближнему зарубежью;
- система верификации прогнозов TAF (выпускаемых синоптиками официальных АМСГ РФ и ближнего зарубежья) и AUTOTAF (выпускаемых сайтом Метеоцентр.Азия) - выявление ошибок, онлайн-сопоставление с фактической погодой METAR, автоматическое внесение коррективов в прогнозы при резком отклонении фактической погоды от прогноза, подсчёт оправдываемости прогнозов по элементам и в целом;
- система обработки, анализа и отображения авиаметеорологической информации для применения провайдерами метеорологической информации.


Погода в Братске - сегодня

Время (UTC), дата Ветер
(°,м/с) 
Видим.   Явления Облачность Т
(°С)
Тd
(°С)
f(%) Тe
(°С)
Pmin
(гПа)
dP
(гПа)
Po
(мм)
O2
(г/м3)
Тmin Tmax R s Состояние
почвы
00 26.05.17 210 (ЮЗ) 20000 м  {ливн. осадки}  3/0 верхняя 
[Ci fib]
+10.8 +3.5 61 +11  1012.6  0.6  723  279  +8.3    0.3    влажная 
03 26.05.17 150 (ЮВ) 20000 м    5/1 1500 м верхняя 
[Cu hum|Ci fib]
+11 +3 58 +11  1012.4  -0.2  722  279           
06 26.05.17 160 (Ю) 20000 м    8/0 средняя 
[Ac trans]
+13.2 +0.3 41 +12  1010.4  -1.6  721  277           
09 26.05.17 230 (ЮЗ) 3-10  20000 м    8/3 1000 м средняя, верхняя 
[Sc|Ac trans|Ci fib]
+16.2 +1.2 36 +17  1007.9  -1.9  720  274           
12 26.05.17 310 (СЗ) 3-11{14}  20000 м  ливневой дождь, в посл. час гроза  10/10 600 м кучево-дожд. 
[Cb cap]
+8.6 +6 84 +8  1011  1.8  721  281    +17.5     
18 26.05.17 270 (З) н/о  {ливн. осадки}  ясно 
+4.8 +2.1 83 +4  1015.1  1.9  724  286           
21 26.05.17 270 (З) 20000 м    8/8 600 м 
[Sc]
+2.6 -2.3 70 +2  1017.4  1.6  725  290           
00 27.05.17 270 (З) 20000 м    3/3 1000 м верхняя 
[Sc diur, vesp|Ci fib]
+4.5 -3.2 57 +3  1019.9  2.7  727  288  +2.4      влажная 
03 27.05.17 270 (З) 3{10}  20000 м    9/9 600 м кучево-дожд. 
[Cb cap]
+7.4 -2.3 50 +7  1020.8  1.5  728  286           
12 27.05.17 270 (З) 2{10}  20000 м  {ливн. осадки}  4/3 1000 м верхняя 
[Sc diur, vesp|Ci fib]
+10.2 -2 42 +10  1021.7  0.1  729  283    +10.7     
15 27.05.17 290 (З) н/о    10/0 средняя, верхняя 
[Ac trans|Ci sp]
+6.2 -0.9 60 +6  1023  0.6  729  287           
18 27.05.17 290 (З) н/о    10/0 средняя, верхняя 
[Ac trans|Ci sp]
+4.3 +0.4 76 +5  1023.2  -0.2  729  289           
21 27.05.17 тихо ()   20000 м    10/0 средняя, верхняя 
[Ac trans|Ci fib]
+3 +0.6 84 +3  1023.1  -0.3  729  290           
00 28.05.17 130 (ЮВ) 20000 м    10/3 600 м средняя, верхняя 
[Sc|Ac trans|Ci fib]
+4.3 +0.4 76 +5  1022.6  -0.3  729  289  +2.8        влажная 
03 28.05.17 140 (ЮВ) 20000 м    10/1 600 м средняя, верхняя 
[Sc|Ac trans|Ci fib]
+7.7 +1.6 65 +7  1021  -0.9  728  285           
06 28.05.17 120 (ЮВ) 20000 м    10/8 600 м средняя, верхняя 
[Sc|Ac trans|Ci fib]
+9.7 -2.1 44 +11  1019.1  -1.6  727  283           
09 28.05.17 330 (СЗ) 20000 м    10/9 600 м кучево-дожд., средняя, верхняя 
[Cb cap|Ac trans|Ci fib]
+15.6 -0.2 34 +16  1016.4  -1.5  726  277           
12 28.05.17 230 (ЮЗ) 20000 м    6/4 1000 м средняя 
[Sc|Ac lent]
+10.1 -1.4 45 +11  1016.6  -0.7  725  282    +15.9       
15 28.05.17 тихо ()   20000 м    6/6 1000 м 
[Sc diur, vesp]
+8 -0.5 55 +8  1016.7  -0.2  725  284           
18 28.05.17 160 (Ю) н/о    6/3 1000 м верхняя 
[Sc|Ci fib]
+4.4 +0.2 74 +5  1017.4  725  287           
21 28.05.17 тихо ()   20000 м    3/0 верхняя 
[Ci fib]
+2.6 +0.5 86 +3  1018  0.1  725  289           
00 29.05.17 220 (ЮЗ) 20000 м    8/0 верхняя 
[Ci fib]
+6.1 +1.1 70 +7  1016.9  -0.2  725  286  +2        сухая 
03 29.05.17 210 (ЮЗ) 20000 м    9/0 верхняя 
[Ci]
+11.8 -1.2 40 +12  1015  -1  724  280           
06 29.05.17 230 (ЮЗ) 20000 м    9/0 верхняя 
[Ci]
+14.7 +0.1 37 +15  1012.4  -2  723  276           
09 29.05.17 210 (ЮЗ) 20000 м    3/0 верхняя 
[Ci fib]
+17.6 +1.2 33 +19  1010.1  -1.7  722  273           
Время (UTC), дата Ветер
(°,м/с) 
Видим.   Явления Облачность Т
(°С)
Тd
(°С)
f(%) Тe
(°С)
Pmin
(гПа)
dP
(гПа)
Po
(мм)
O2
(г/м3)
Тmin Tmax R s Состояние
почвы

Для получения пояснительной информации подведите курсор к названию столбца.

ПОГОДА в Братске - архив

Всё, что Вы хотите узнать о погоде в Братске - удобно и подробно!

Выберите нужную дату (начиная с 1 января 2015* года) и нажмите кнопку "Найти".
Будут отображены архивные сводки погоды по пункту Братск, начиная с указанной даты.


Отображать данные в формате CSV (для использования в таблицах Excel)


Внимание! Наш архив погоды предназначен исключительно для личного некоммерческого использования в познавательных целях. Если Вам необходимы официальные справки о состоянии погоды (для производственных, юридических, коммерческих и т.п. целей), обращайтесь в органы Росгидромета.

*Примечание: данная дата относится к архиву по метеостанциям СССР (Россия, СНГ, Балтия).
Архив по метеостанциям Зарубежной Европы и Азии (кроме Китая) хранится 10 дней, по другим регионам земного шара (Китай, Африка, Америка, Австралия, Океания) - 1 день.

Братск - район местоположения метеостанции


Название, широта, долгота, высота метеостанции:
Братск (город) 56.3°ш. 101.8°д. 416 м над ур. моря [Российская Федерация]

Дополнительная информация

В oтличие oт бoльшинства пoгoдных сайтoв мы публикуем пoдрoбную метеoинфoрмацию в детальнoм прoфессиoнальнoм фoрмате.

Характеристики температуры и влажнoсти вoздуха измеряются на высoте 2 м в тени вдали oт зданий и деревьев.
Скoрoсть ветра измеряется на высoте 10 м (на урoвне рoста челoвека скoрoсть ветра ниже в 1.5-2 раза). Если метеoстанция нахoдится в гoрoде или в лесу, тo скoрoсть ветра занижена на 2-4 м/с пo сравнению с oткрытым местoм. Скoрoсть ветра над акватoриями крупных рек и oзёр, а также на вершинах хoлмoв на 2-5 м/с выше, чем в oбычных услoвиях.
Атмoсфернoе давление в разных тoчках местнoсти мoжет значительнo oтличаться oт давления на метеoстанции, в зависимoсти oт услoвий рельефа (при пoдъёме на 10 м давление пoнижается примернo на 1 мм рт.ст.).